Simultaneous Nadir Overpasses (SNOs) Predictions

Prediction of SNOs between METOP-B and NOAA-19 Satellite Orbit:

Table of predicted SNOs for the next 14.0 days since TLE Epoch: 8/7/2020
Index Date (METOP-B) Time (METOP-B) Lat,Lon (METOP-B) SZA (METOP-B ) Date (NOAA-19) Time (NOAA-19) Lat,Lon (NOAA-19) SZA (NOAA-19 ) Distance(km) Time Diff (sec)
1 08/15/2020 22:30:22 -80.14, 45.94 112.80 08/15/2020 22:29:08 -80.14, 45.90 112.83 0.88 74
2 08/15/2020 23:21:03 80.13,-146.83 67.20 08/15/2020 23:20:08 80.14,-146.82 67.19 0.48 55
3 08/16/2020 00:11:44 -80.13, 20.46 112.80 08/16/2020 00:11:08 -80.13, 20.57 112.80 2.05 36
4 08/16/2020 01:02:25 80.12,-172.31 67.20 08/16/2020 01:02:08 80.12,-172.14 67.21 3.27 17
5 08/16/2020 01:53:06 -80.12, -5.02 112.80 08/16/2020 01:53:09 -80.14, -5.08 112.78 2.67 3
6 08/16/2020 02:43:46 80.13, 162.52 67.25 08/16/2020 02:44:08 80.11, 162.53 67.24 2.56 22
7 08/16/2020 03:34:28 -80.10, -30.49 112.80 08/16/2020 03:35:09 -80.12, -30.41 112.76 2.96 41
8 08/16/2020 04:25:08 80.12, 137.04 67.25 08/16/2020 04:26:09 80.12, 136.89 67.26 2.81 61
